W5ITZ Weather Reports


time (UTC)temp
F
wind
direction
speed
knots
gust
knots
rain 1hr
in
rain 24hr
in
rain mn
in
humidity
%
barometer
mb
20260506204526 85 182 4.3 6.1 0.00 0.00 0.00 78 1008.3
20260506204022 86 188 6.1 7.0 0.00 0.00 0.00 77 1008.3
20260506203521 86 231 4.3 4.3 0.00 0.00 0.00 77 1008.2
20260506203017 86 239 4.3 5.2 0.00 0.00 0.00 76 1008.4
20260506202514 86 219 3.5 5.2 0.00 0.00 0.00 76 1008.2
20260506202010 86 226 2.6 4.3 0.00 0.00 0.00 77 1008.3
20260506201509 86 240 5.2 6.1 0.00 0.00 0.00 77 1008.5
20260506201004 85 197 5.2 6.1 0.00 0.00 0.00 78 1008.5
20260506200501 85 245 1.7 1.7 0.00 0.00 0.00 80 1008.4
20260506195957 84 228 4.3 6.1 0.00 0.00 0.00 80 1008.7
20260506195455 84 220 5.2 6.1 0.00 0.00 0.00 80 1008.8
20260506194950 83 198 6.1 7.0 0.00 0.00 0.00 82 1008.9
20260506194448 84 170 7.8 8.7 0.00 0.00 0.00 80 1009.0
20260506193945 84 178 8.7 8.7 0.00 0.00 0.00 79 1009.0
20260506193442 84 174 7.0 7.0 0.00 0.00 0.00 81 1009.1
20260506192938 83 138 7.0 7.8 0.00 0.00 0.00 82 1009.1
20260506192436 83 171 7.8 8.7 0.00 0.00 0.00 82 1009.1
20260506191932 83 165 7.0 8.7 0.00 0.00 0.00 83 1009.5
20260506191429 83 181 12.2 12.2 0.00 0.00 0.00 82 1009.5
20260506190925 82 163 8.7 8.7 0.00 0.00 0.00 83 1009.4
20260506190422 82 206 7.0 7.0 0.00 0.00 0.00 82 1009.5
20260506185919 83 168 9.6 9.6 0.00 0.00 0.00 82 1009.6
20260506185417 83 203 7.8 9.6 0.00 0.00 0.00 82 1009.6
20260506184913 83 171 7.0 8.7 0.00 0.00 0.00 82 1009.6
20260506184410 82 209 7.8 8.7 0.00 0.00 0.00 83 1009.6
20260506183908 81 200 5.2 6.1 0.00 0.00 0.00 86 1009.7
20260506183403 81 177 7.8 8.7 0.00 0.00 0.00 86 1009.9
20260506182900 81 179 8.7 9.6 0.00 0.00 0.00 86 1010.0
20260506182357 81 177 8.7 9.6 0.00 0.00 0.00 85 1010.1
20260506181854 81 163 4.3 5.2 0.00 0.00 0.00 87 1010.1
20260506181352 81 179 7.0 7.8 0.00 0.00 0.00 87 1010.2
20260506180849 81 169 6.1 7.0 0.00 0.00 0.00 87 1010.0
20260506180345 81 198 7.8 8.7 0.00 0.00 0.00 86 1010.4
20260506175842 81 173 6.1 7.0 0.00 0.00 0.00 86 1010.1
20260506175338 80 182 7.0 7.8 0.00 0.00 0.00 86 1010.3
20260506174836 80 177 7.0 9.6 0.00 0.00 0.00 87 1010.4
20260506174333 80 174 3.5 4.3 0.00 0.00 0.00 87 1010.4
20260506173831 80 171 5.2 5.2 0.00 0.00 0.00 87 1010.3
20260506173327 80 197 6.1 7.0 0.00 0.00 0.00 87 1010.3
20260506172825 80 175 4.3 5.2 0.00 0.00 0.00 87 1010.4
20260506172321 80 148 6.1 6.1 0.00 0.00 0.00 86 1010.5
20260506171818 80 172 7.0 7.0 0.00 0.00 0.00 86 1010.3
20260506171315 81 157 7.8 8.7 0.00 0.00 0.00 86 1010.4
20260506170813 81 173 7.0 7.8 0.00 0.00 0.00 85 1010.4
20260506170309 81 172 7.0 7.0 0.00 0.00 0.00 85 1010.2
20260506165808 81 183 7.0 8.7 0.00 0.00 0.00 84 1010.3
20260506165306 81 189 7.0 7.8 0.00 0.00 0.00 85 1010.3
20260506164802 81 158 6.1 7.0 0.00 0.00 0.00 85 1010.2
20260506164258 81 169 7.0 8.7 0.00 0.00 0.00 86 1010.2
20260506163755 81 165 7.8 8.7 0.00 0.00 0.00 86 1010.2
20260506163250 81 171 7.8 7.8 0.00 0.00 0.00 86 1010.2
20260506162746 81 163 7.0 8.7 0.00 0.00 0.00 86 1010.2
20260506162244 80 169 8.7 8.7 0.00 0.00 0.00 86 1010.1
20260506161742 80 176 10.4 13.0 0.00 0.00 0.00 87 1010.1
20260506161239 80 167 8.7 9.6 0.00 0.00 0.00 87 1010.1
20260506160736 80 165 7.0 7.8 0.00 0.00 0.00 87 1009.8
20260506160233 80 164 11.3 13.0 0.00 0.00 0.00 86 1009.8
20260506155731 80 156 9.6 9.6 0.00 0.00 0.00 88 1009.7
20260506155228 79 183 9.6 11.3 0.00 0.00 0.00 91 1009.8
20260506153335 78 156 2.6 2.6 0.00 0.00 0.00 92 1009.6
20260506152832 78 173 4.3 4.3 0.00 0.00 0.00 91 1009.7
20260506152329 79 140 5.2 6.1 0.00 0.00 0.00 91 1009.6
20260506151828 79 137 4.3 5.2 0.00 0.00 0.00 91 1009.5
20260506151324 79 133 6.1 7.0 0.00 0.00 0.00 92 1009.4
20260506150821 78 144 4.3 5.2 0.00 0.00 0.00 92 1009.0
20260506150318 78 148 6.1 6.1 0.00 0.00 0.00 92 1009.4
20260506145815 78 138 7.8 7.8 0.00 0.00 0.00 93 1009.1
20260506145311 78 135 7.0 7.8 0.00 0.00 0.00 93 1009.3
20260506144809 78 143 5.2 6.1 0.00 0.00 0.00 94 1009.3
20260506144305 77 116 5.2 6.1 0.00 0.00 0.00 94 1009.0
20260506143804 77 116 3.5 4.3 0.00 0.00 0.00 94 1009.3
20260506143300 77 131 5.2 6.1 0.00 0.00 0.00 94 1008.9
20260506142759 77 123 4.3 5.2 0.00 0.00 0.00 94 1008.9
20260506142256 77 126 6.1 7.0 0.00 0.00 0.00 94 1009.1
20260506141754 77 142 5.2 5.2 0.00 0.00 0.00 94 1009.0
20260506141253 77 119 3.5 4.3 0.00 0.00 0.00 94 1008.9
20260506140750 77 103 2.6 2.6 0.00 0.00 0.00 95 1009.0
20260506140246 77 130 4.3 5.2 0.00 0.00 0.00 95 1008.8
20260506135744 77 122 4.3 5.2 0.00 0.00 0.00 95 1008.9
20260506135240 77 96 4.3 4.3 0.00 0.00 0.00 95 1009.2
20260506134737 77 115 1.7 1.7 0.00 0.00 0.00 95 1009.1
20260506134233 77 114 6.1 7.0 0.00 0.00 0.00 95 1009.0
20260506133730 77 107 3.5 4.3 0.00 0.00 0.00 95 1008.9
20260506133227 77 115 4.3 5.2 0.00 0.00 0.00 95 1009.3
20260506132724 77 122 2.6 2.6 0.00 0.00 0.00 95 1009.1
20260506132221 77 122 3.5 4.3 0.00 0.00 0.00 95 1009.3
20260506131719 76 133 2.6 2.6 0.00 0.00 0.00 95 1009.0
20260506131214 76 148 3.5 2.6 0.00 0.00 0.00 95 1009.0
20260506130712 76 147 1.7 1.7 0.00 0.00 0.00 95 1009.1
20260506130209 76 109 1.7 1.7 0.00 0.00 0.00 95 1009.1
20260506125707 76 118 2.6 2.6 0.00 0.00 0.00 95 1009.0
20260506125204 76 116 2.6 2.6 0.00 0.00 0.00 95 1008.9
20260506124702 76 97 1.7 1.7 0.00 0.00 0.00 95 1009.0
20260506124200 76 133 1.7 1.7 0.00 0.00 0.00 95 1009.0
20260506123657 76 82 0.9 0.9 0.00 0.00 0.00 95 1009.0
20260506123155 76 84 0.9 0.9 0.00 0.00 0.00 95 1009.1
20260506122652 76 129 1.7 1.7 0.00 0.00 0.00 95 1008.9
20260506122150 76 129 2.6 2.6 0.00 0.00 0.00 95 1008.6
20260506121647 76 119 2.6 2.6 0.00 0.00 0.00 95 1008.9
20260506121143 76 118 2.6 4.3 0.00 0.00 0.00 95 1008.8
20260506120642 76 118 1.7 1.7 0.00 0.00 0.00 95 1008.5
20260506120138 76 110 1.7 1.7 0.00 0.00 0.00 95 1008.5
20260506115637 76 75 0.9 0.9 0.00 0.00 0.00 95 1008.6
20260506115135 76 134 1.7 0.9 0.00 0.00 0.00 95 1008.9
20260506114632 76 122 2.6 2.6 0.00 0.00 0.00 95 1008.7
20260506114130 76 148 3.5 4.3 0.00 0.00 0.00 95 1008.8
20260506113628 76 131 2.6 1.7 0.00 0.00 0.00 95 1008.6
20260506113125 76 136 2.6 4.3 0.00 0.00 0.00 95 1008.7
20260506112621 76 165 2.6 2.6 0.00 0.00 0.00 95 1008.7
20260506112119 76 156 2.6 2.6 0.00 0.00 0.00 95 1008.4
20260506111616 76 160 2.6 2.6 0.00 0.00 0.00 95 1008.7
20260506111114 76 155 2.6 2.6 0.00 0.00 0.00 95 1008.6
20260506110611 76 141 2.6 2.6 0.00 0.00 0.00 95 1008.4
20260506110108 76 138 4.3 4.3 0.00 0.00 0.00 95 1008.3
20260506105604 76 123 2.6 1.7 0.00 0.00 0.00 95 1008.7
20260506105101 76 129 3.5 4.3 0.00 0.00 0.00 95 1008.3
20260506104600 76 133 2.6 2.6 0.00 0.00 0.00 95 1008.4
20260506104057 76 130 2.6 2.6 0.00 0.00 0.00 95 1008.4
20260506103554 76 127 2.6 2.6 0.00 0.00 0.00 95 1008.3
20260506103051 76 136 1.7 1.7 0.00 0.00 0.00 95 1008.4
20260506102549 76 127 2.6 2.6 0.00 0.00 0.00 95 1008.3
20260506102046 76 119 2.6 1.7 0.00 0.00 0.00 95 1008.3
20260506101543 76 124 2.6 1.7 0.00 0.00 0.00 95 1008.3
20260506101040 76 138 2.6 2.6 0.00 0.00 0.00 95 1008.2
20260506100538 76 148 3.5 4.3 0.00 0.00 0.00 95 1008.1
20260506100036 76 163 2.6 2.6 0.00 0.00 0.00 95 1008.3
20260506095535 76 134 2.6 2.6 0.00 0.00 0.00 95 1008.1
20260506095030 76 140 3.5 4.3 0.00 0.00 0.00 94 1008.3
20260506094528 76 152 2.6 2.6 0.00 0.00 0.00 94 1008.2
20260506094026 76 148 4.3 4.3 0.00 0.00 0.00 94 1008.2
20260506093524 76 135 4.3 4.3 0.00 0.00 0.00 94 1008.2
20260506093021 76 149 3.5 5.2 0.00 0.00 0.00 94 1008.1
20260506092519 76 163 3.5 4.3 0.00 0.00 0.00 94 1008.0
20260506092015 76 158 2.6 2.6 0.00 0.00 0.00 94 1008.1
20260506091514 76 155 2.6 2.6 0.00 0.00 0.00 94 1008.1
20260506091011 76 144 4.3 5.2 0.00 0.00 0.00 94 1007.8
20260506090509 76 138 4.3 5.2 0.00 0.00 0.00 94 1008.0
20260506090005 76 167 5.2 6.1 0.00 0.00 0.00 94 1007.9
20260506085501 76 142 4.3 5.2 0.00 0.00 0.00 94 1008.0
20260506084958 76 150 4.3 5.2 0.00 0.00 0.00 94 1008.1
20260506084455 76 152 4.3 5.2 0.00 0.00 0.00 93 1008.2
20260506083951 76 196 6.1 6.1 0.00 0.00 0.00 93 1008.2
20260506083448 76 157 5.2 5.2 0.00 0.00 0.00 94 1008.2
20260506082945 76 148 6.1 6.1 0.00 0.00 0.00 93 1008.2
20260506082442 76 165 4.3 5.2 0.00 0.00 0.00 93 1008.0
20260506081938 76 150 4.3 4.3 0.00 0.00 0.00 93 1008.0
20260506081437 76 147 5.2 5.2 0.00 0.00 0.00 94 1008.1
20260506080934 76 147 6.1 6.1 0.00 0.00 0.00 94 1008.2
20260506080431 76 176 4.3 4.3 0.00 0.00 0.00 94 1008.2
20260506073415 77 175 6.1 6.1 0.00 0.00 0.00 93 1008.5
20260506072912 77 150 6.1 6.1 0.00 0.00 0.00 93 1008.7
20260506072409 77 148 5.2 6.1 0.00 0.00 0.00 93 1008.9
20260506071907 77 176 4.3 5.2 0.00 0.00 0.00 93 1008.8
20260506071405 77 166 4.3 5.2 0.00 0.00 0.00 93 1009.0
20260506070901 77 174 7.0 7.8 0.00 0.00 0.00 93 1008.7
20260506070358 77 176 5.2 6.1 0.00 0.00 0.00 93 1009.0
20260506062335 77 195 5.2 6.1 0.00 0.00 0.00 92 1009.5
20260506061831 77 193 4.3 5.2 0.00 0.00 0.00 92 1009.3
20260506061328 77 187 5.2 5.2 0.00 0.00 0.00 92 1009.3
20260506060826 77 188 3.5 5.2 0.00 0.00 0.00 92 1009.4
20260506060324 77 215 5.2 5.2 0.00 0.00 0.00 92 1009.4
20260506051255 77 198 8.7 9.6 0.00 0.00 0.00 92 1008.7
20260506050754 77 176 7.0 8.7 0.00 0.00 0.00 91 1009.1
20260506050251 77 142 7.0 8.7 0.00 0.00 0.00 91 1008.9
20260506044741 77 179 5.2 6.1 0.00 0.00 0.00 91 1009.0
20260506044238 77 189 9.6 11.3 0.00 0.00 0.00 91 1008.7
20260506043736 77 188 7.0 7.8 0.00 0.00 0.00 91 1008.7
20260506043233 77 206 9.6 12.2 0.00 0.00 0.00 91 1008.6
20260506042732 77 166 6.1 7.8 0.00 0.00 0.00 91 1008.7
20260506042230 77 173 9.6 9.6 0.00 0.00 0.00 91 1008.7
20260506041728 77 182 7.8 7.8 0.00 0.00 0.00 91 1008.8
20260506041225 77 162 7.8 8.7 0.00 0.00 0.00 91 1008.8
20260506040722 77 150 7.8 8.7 0.00 0.00 0.00 90 1008.6
20260506040219 77 169 9.6 9.6 0.00 0.00 0.00 90 1008.6
20260506035716 77 176 10.4 13.9 0.00 0.00 0.00 91 1008.5
20260506035213 77 185 6.1 7.0 0.00 0.00 0.00 90 1008.6
20260506034709 77 184 10.4 11.3 0.00 0.00 0.00 90 1008.3
20260506034207 77 161 9.6 9.6 0.00 0.00 0.00 90 1008.5
20260506033704 77 157 7.0 7.8 0.00 0.00 0.00 90 1008.4
20260506033201 77 195 8.7 9.6 0.00 0.00 0.00 90 1008.6
20260506032658 77 183 10.4 12.2 0.00 0.00 0.00 91 1008.4
20260506032155 77 165 7.0 9.6 0.00 0.00 0.00 91 1008.7
20260506031651 77 181 6.1 7.0 0.00 0.00 0.00 91 1008.7
20260506031149 77 167 6.1 7.0 0.00 0.00 0.00 91 1008.7
20260506030647 77 162 7.8 7.8 0.00 0.00 0.00 91 1008.5
20260506030144 77 164 7.0 7.0 0.00 0.00 0.00 91 1008.5
20260506025641 77 168 7.8 9.6 0.00 0.00 0.00 91 1008.4
20260506025137 77 183 8.7 8.7 0.00 0.00 0.00 91 1008.2
20260506024635 77 188 7.8 8.7 0.00 0.00 0.00 91 1008.3
20260506024130 77 188 7.8 8.7 0.00 0.00 0.00 91 1008.1
20260506023627 77 176 7.8 8.7 0.00 0.00 0.00 91 1008.1
20260506023124 77 176 6.1 7.0 0.00 0.00 0.00 91 1008.1
20260506022622 77 166 9.6 9.6 0.00 0.00 0.00 91 1008.0
20260506022119 77 178 5.2 6.1 0.00 0.00 0.00 91 1007.9
20260506021616 77 185 5.2 6.1 0.00 0.00 0.00 91 1007.8
20260506021114 77 181 5.2 7.0 0.00 0.00 0.00 91 1007.6
20260506020610 77 169 7.0 7.8 0.00 0.00 0.00 91 1007.6
20260506020108 77 189 6.1 7.0 0.00 0.00 0.00 91 1007.5
20260506015606 77 155 8.7 8.7 0.00 0.00 0.00 91 1007.5
20260506015102 77 182 7.8 8.7 0.00 0.00 0.00 90 1007.8
20260506014600 77 158 8.7 9.6 0.00 0.00 0.00 90 1007.5
20260506014055 77 191 12.2 13.0 0.00 0.00 0.00 90 1007.3
20260506013554 77 171 9.6 9.6 0.00 0.00 0.00 90 1007.4
20260506013050 77 191 6.1 7.8 0.00 0.00 0.00 90 1007.2
20260506012546 77 187 7.8 9.6 0.00 0.00 0.00 89 1007.0
20260506012043 77 177 7.8 9.6 0.00 0.00 0.00 89 1007.0
20260506011541 78 192 7.0 7.8 0.00 0.00 0.00 89 1007.1
20260506011036 78 200 7.8 7.8 0.00 0.00 0.00 88 1006.9
20260506010531 78 188 9.6 9.6 0.00 0.00 0.00 88 1006.8
20260506010027 78 148 10.4 11.3 0.00 0.00 0.00 88 1006.8
20260506005524 78 177 7.0 8.7 0.00 0.00 0.00 87 1006.7
20260506005020 78 186 10.4 13.9 0.00 0.00 0.00 87 1006.7
20260506004518 78 176 11.3 13.9 0.00 0.00 0.00 86 1006.7
20260506004014 78 195 11.3 15.6 0.00 0.00 0.00 87 1006.7
20260506003510 78 200 9.6 11.3 0.00 0.00 0.00 87 1006.6
20260506003006 78 182 11.3 13.9 0.00 0.00 0.00 87 1006.7
20260506002502 78 176 10.4 13.0 0.00 0.00 0.00 87 1006.8
20260506001958 78 179 9.6 11.3 0.00 0.00 0.00 86 1006.7
20260506001455 78 182 9.6 11.3 0.00 0.00 0.00 86 1006.7
20260506000952 78 185 12.2 13.0 0.00 0.00 0.00 86 1006.8
20260506000449 79 175 12.2 13.0 0.00 0.00 0.00 86 1006.5
20260505235946 79 148 8.7 9.6 0.00 0.00 0.00 85 1006.5
20260505235445 79 170 9.6 11.3 0.00 0.00 0.00 85 1006.7
20260505234941 79 166 13.0 13.9 0.00 0.00 0.00 85 1006.5
20260505234439 79 179 11.3 12.2 0.00 0.00 0.00 85 1006.4
20260505233935 79 163 9.6 11.3 0.00 0.00 0.00 85 1006.5
20260505233433 79 180 13.0 15.6 0.00 0.00 0.00 85 1006.5
20260505232930 79 170 7.8 8.7 0.00 0.00 0.00 85 1006.6
20260505232428 79 194 10.4 12.2 0.00 0.00 0.00 84 1006.5
20260505231924 79 171 11.3 13.0 0.00 0.00 0.00 84 1006.8
20260505231422 79 161 13.0 14.8 0.00 0.00 0.00 83 1006.7
20260505230920 79 179 13.9 18.2 0.00 0.00 0.00 84 1006.7
20260505230418 79 187 10.4 13.0 0.00 0.00 0.00 83 1006.6
20260505225914 80 197 13.0 14.8 0.00 0.00 0.00 83 1006.6
20260505225411 80 158 11.3 12.2 0.00 0.00 0.00 83 1006.7
20260505224906 80 183 13.0 14.8 0.00 0.00 0.00 82 1006.8
20260505224404 80 183 11.3 13.0 0.00 0.00 0.00 82 1006.8
20260505223901 80 202 8.7 9.6 0.00 0.00 0.00 82 1006.9
20260505223358 80 205 10.4 12.2 0.00 0.00 0.00 83 1007.0
20260505222854 80 202 9.6 12.2 0.00 0.00 0.00 82 1006.9
20260505222350 80 192 7.0 7.0 0.00 0.00 0.00 83 1007.1
20260505221847 80 182 11.3 13.0 0.00 0.00 0.00 82 1007.0
20260505221344 80 177 10.4 13.0 0.00 0.00 0.00 82 1007.1
20260505220841 80 184 12.2 13.9 0.00 0.00 0.00 83 1007.1
20260505220338 80 169 13.0 14.8 0.00 0.00 0.00 82 1007.1
20260505215836 80 186 12.2 13.0 0.00 0.00 0.00 82 1007.5
20260505215333 80 179 7.8 8.7 0.00 0.00 0.00 83 1007.4
20260505214831 80 179 11.3 13.0 0.00 0.00 0.00 82 1007.3
20260505214328 80 174 11.3 13.9 0.00 0.00 0.00 82 1007.3
20260505213825 80 132 11.3 13.9 0.00 0.00 0.00 81 1007.5
20260505213324 80 172 9.6 12.2 0.00 0.00 0.00 81 1007.4
20260505212819 80 161 9.6 11.3 0.00 0.00 0.00 81 1007.5
20260505212317 80 177 11.3 13.0 0.00 0.00 0.00 81 1007.4
20260505211812 80 159 9.6 12.2 0.00 0.00 0.00 81 1007.7
20260505211310 80 178 12.2 13.9 0.00 0.00 0.00 81 1007.6
20260505210806 81 170 12.2 14.8 0.00 0.00 0.00 80 1007.6
20260505210303 81 161 11.3 13.0 0.00 0.00 0.00 81 1007.7
20260505205800 81 160 8.7 8.7 0.00 0.00 0.00 81 1007.7
20260505205259 81 160 7.0 7.8 0.00 0.00 0.00 81 1007.7